Tracking 35055 objects as of 18-Aug-2026
HD Live streaming from Space Station
objects crossing your sky now

CYBERCUBE

Track CYBERCUBE now!
10-day predictions


NORAD ID: 69938
Int'l Code: 2026-156BX
Launch date: July 7, 2026
Source: European Space Agency (ESA)
Launch site: AIR FORCE WESTERN TEST RANGE (AFWTR)
Your satellite tracking list
Your tracking list is empty




NASA's NSSDC Master Catalog

Two Line Element Set (TLE):
1 69938U 26156BX  26230.51102156  .00002189  00000-0  21791-3 0  9992
2 69938  97.7452 130.2986 0010640  20.1283 340.0354 14.92622232  6296
Source of the keplerian elements: AFSPC